When you browse on this site, cookies collect data to enhance your experience and personalize the content and advertising you see.
Visit our Privacy Policy to learn more. By continuing to use the site, you agree to this use of cookies and data.
  • In Schweiz
  • Länderverzeichnis
  • Für 7 Tage
  • Wassertemperatur
  • Wetterkarte
  • Widgets
  • user-avatar
    Anmelden

    Stündliche Wetter Matlock

    Heute, 18 September, Mittwoch

    Zeit Temperatur Niederschläge Wind Luftdruck Luftfeuchtigkeit
    00:00 +9°C° 0 mm 1 m/S 755 mmHg 83%
    01:00 +8°C° 0 mm 1 m/S 755 mmHg 84%
    02:00 +7°C° 0 mm 0 m/S 755 mmHg 84%
    03:00 +7°C° 0 mm 0 m/S 755 mmHg 84%
    04:00 +8°C° 0 mm 1 m/S 755 mmHg 85%
    05:00 +8°C° 0 mm 1 m/S 755 mmHg 86%
    06:00 +8°C° 0 mm 1 m/S 755 mmHg 85%
    07:00 +10°C° 0 mm 1 m/S 755 mmHg 81%
    08:00 +11°C° 0 mm 1 m/S 755 mmHg 76%
    09:00 +13°C° 0 mm 1 m/S 755 mmHg 72%
    10:00 +14°C° 0 mm 1 m/S 755 mmHg 68%
    11:00 +15°C° 0 mm 2 m/S 755 mmHg 63%
    12:00 +16°C° 0 mm 2 m/S 755 mmHg 58%
    13:00 +17°C° 0 mm 2 m/S 755 mmHg 59%
    14:00 +17°C° 0 mm 2 m/S 755 mmHg 59%
    15:00 +18°C° 0 mm 2 m/S 755 mmHg 59%
    16:00 +17°C° 0 mm 2 m/S 755 mmHg 65%
    17:00 +15°C° 0 mm 2 m/S 755 mmHg 70%
    18:00 +14°C° 0 mm 2 m/S 755 mmHg 76%
    19:00 +13°C° 0 mm 2 m/S 755 mmHg 78%
    20:00 +13°C° 0 mm 2 m/S 755 mmHg 80%
    21:00 +12°C° 0 mm 1 m/S 756 mmHg 81%
    22:00 +11°C° 0 mm 1 m/S 756 mmHg 83%
    23:00 +11°C° 0 mm 1 m/S 756 mmHg 84%

    Morgen, 19 September, Donnerstag

    Zeit Temperatur Niederschläge Wind Luftdruck Luftfeuchtigkeit
    00:00 +11°C° 0 mm 1 m/S 756 mmHg 85%
    01:00 +11°C° 0 mm 1 m/S 756 mmHg 86%
    02:00 +11°C° 0 mm 1 m/S 756 mmHg 87%
    03:00 +10°C° 0 mm 0 m/S 756 mmHg 88%
    04:00 +10°C° 0 mm 0 m/S 756 mmHg 88%
    05:00 +10°C° 0 mm 0 m/S 756 mmHg 88%
    06:00 +10°C° 0 mm 0 m/S 756 mmHg 88%
    07:00 +12°C° 0 mm 1 m/S 756 mmHg 83%
    08:00 +14°C° 0 mm 1 m/S 756 mmHg 78%
    09:00 +15°C° 0 mm 1 m/S 757 mmHg 73%
    10:00 +18°C° 0 mm 1 m/S 756 mmHg 70%
    11:00 +19°C° 0 mm 1 m/S 756 mmHg 66%
    12:00 +20°C° 0 mm 1 m/S 756 mmHg 63%
    13:00 +20°C° 0 mm 1 m/S 756 mmHg 62%
    14:00 +21°C° 0 mm 1 m/S 756 mmHg 61%
    15:00 +21°C° 0 mm 1 m/S 756 mmHg 61%
    16:00 +20°C° 0 mm 1 m/S 756 mmHg 66%
    17:00 +18°C° 0 mm 1 m/S 755 mmHg 71%
    18:00 +16°C° 0 mm 1 m/S 755 mmHg 76%
    19:00 +15°C° 0 mm 1 m/S 755 mmHg 78%
    20:00 +15°C° 0 mm 1 m/S 755 mmHg 80%
    21:00 +13°C° 0 mm 0 m/S 756 mmHg 82%
    22:00 +14°C° 0 mm 1 m/S 755 mmHg 83%
    23:00 +13°C° 0 mm 1 m/S 755 mmHg 83%

    übermorgen, 20 September, Freitag

    Zeit Temperatur Niederschläge Wind Luftdruck Luftfeuchtigkeit
    00:00 +13°C° 0 mm 1 m/S 755 mmHg 84%
    01:00 +12°C° 0 mm 1 m/S 755 mmHg 85%
    02:00 +12°C° 0 mm 1 m/S 754 mmHg 86%
    03:00 +12°C° 0 mm 1 m/S 754 mmHg 87%
    04:00 +11°C° 0 mm 1 m/S 754 mmHg 87%
    05:00 +11°C° 0 mm 1 m/S 753 mmHg 88%
    06:00 +11°C° 0 mm 1 m/S 753 mmHg 88%
    07:00 +12°C° 0 mm 2 m/S 753 mmHg 84%
    08:00 +14°C° 0 mm 2 m/S 753 mmHg 80%
    09:00 +14°C° 0 mm 3 m/S 753 mmHg 76%
    10:00 +16°C° 0 mm 3 m/S 753 mmHg 73%
    11:00 +17°C° 0 mm 4 m/S 752 mmHg 70%
    12:00 +18°C° 0 mm 4 m/S 752 mmHg 67%
    13:00 +17°C° 0 mm 5 m/S 751 mmHg 66%
    14:00 +19°C° 0 mm 5 m/S 751 mmHg 65%
    15:00 +19°C° 0 mm 5 m/S 750 mmHg 64%
    16:00 +17°C° 0 mm 5 m/S 749 mmHg 67%
    17:00 +16°C° 0 mm 5 m/S 749 mmHg 69%
    18:00 +14°C° 0 mm 4 m/S 748 mmHg 72%
    19:00 +13°C° 0 mm 5 m/S 748 mmHg 72%
    20:00 +12°C° 0 mm 5 m/S 748 mmHg 72%
    21:00 +12°C° 0 mm 5 m/S 748 mmHg 72%
    22:00 +10°C° 0 mm 5 m/S 747 mmHg 75%
    23:00 +10°C° 0 mm 5 m/S 747 mmHg 78%

    21 September, Samstag

    Zeit Temperatur Niederschläge Wind Luftdruck Luftfeuchtigkeit
    00:00 +10°C° 0 mm 4 m/S 746 mmHg 82%
    01:00 +10°C° 0 mm 4 m/S 746 mmHg 83%
    02:00 +10°C° 0 mm 4 m/S 746 mmHg 84%
    03:00 +10°C° 0 mm 4 m/S 745 mmHg 85%
    04:00 +10°C° 0 mm 4 m/S 744 mmHg 85%
    05:00 +10°C° 0 mm 4 m/S 744 mmHg 84%
    06:00 +8°C° 0 mm 4 m/S 743 mmHg 84%
    07:00 +11°C° 0 mm 4 m/S 743 mmHg 79%
    08:00 +12°C° 0 mm 5 m/S 743 mmHg 73%
    09:00 +14°C° 0 mm 5 m/S 743 mmHg 68%
    10:00 +15°C° 0 mm 5 m/S 742 mmHg 64%
    11:00 +16°C° 0 mm 5 m/S 742 mmHg 61%
    12:00 +19°C° 0 mm 6 m/S 741 mmHg 58%
    13:00 +19°C° 0 mm 5 m/S 741 mmHg 57%
    14:00 +20°C° 0 mm 5 m/S 740 mmHg 57%
    15:00 +20°C° 0 mm 5 m/S 739 mmHg 57%
    16:00 +19°C° 0 mm 5 m/S 739 mmHg 61%
    17:00 +18°C° 0 mm 4 m/S 739 mmHg 65%
    18:00 +17°C° 0 mm 4 m/S 738 mmHg 68%
    19:00 +15°C° 0 mm 4 m/S 738 mmHg 71%
    20:00 +14°C° 0 mm 3 m/S 738 mmHg 73%
    21:00 +14°C° 0 mm 3 m/S 738 mmHg 75%
    22:00 +13°C° 0.1 mm 3 m/S 737 mmHg 77%
    23:00 +13°C° 0.1 mm 3 m/S 737 mmHg 79%

    22 September, Sonntag

    Zeit Temperatur Niederschläge Wind Luftdruck Luftfeuchtigkeit
    00:00 +14°C° 0.1 mm 2 m/S 736 mmHg 81%
    01:00 +14°C° 0.3 mm 2 m/S 736 mmHg 84%
    02:00 +15°C° 0.3 mm 2 m/S 736 mmHg 87%
    03:00 +15°C° 0.3 mm 2 m/S 736 mmHg 90%
    04:00 +15°C° 0.2 mm 2 m/S 735 mmHg 92%
    05:00 +15°C° 0.2 mm 2 m/S 735 mmHg 94%
    06:00 +15°C° 0.2 mm 2 m/S 735 mmHg 95%
    07:00 +16°C° 0.2 mm 3 m/S 736 mmHg 94%
    08:00 +16°C° 0.2 mm 3 m/S 736 mmHg 93%
    09:00 +15°C° 0.2 mm 4 m/S 736 mmHg 92%
    10:00 +17°C° 0 mm 4 m/S 736 mmHg 85%
    11:00 +17°C° 0 mm 5 m/S 737 mmHg 78%
    12:00 +19°C° 0 mm 5 m/S 737 mmHg 72%
    13:00 +19°C° 0 mm 5 m/S 737 mmHg 69%
    14:00 +19°C° 0 mm 5 m/S 737 mmHg 67%
    15:00 +17°C° 0 mm 5 m/S 736 mmHg 64%
    16:00 +17°C° 0 mm 4 m/S 736 mmHg 69%
    17:00 +15°C° 0 mm 4 m/S 737 mmHg 74%
    18:00 +14°C° 0 mm 3 m/S 737 mmHg 79%
    19:00 +13°C° 0 mm 3 m/S 737 mmHg 81%
    20:00 +13°C° 0 mm 4 m/S 738 mmHg 83%
    21:00 +12°C° 0 mm 4 m/S 738 mmHg 86%
    22:00 +11°C° 0 mm 4 m/S 738 mmHg 86%
    23:00 +11°C° 0 mm 4 m/S 739 mmHg 86%

    23 September, Montag

    Zeit Temperatur Niederschläge Wind Luftdruck Luftfeuchtigkeit
    00:00 +10°C° 0 mm 4 m/S 739 mmHg 85%
    01:00 +10°C° 0 mm 4 m/S 739 mmHg 87%
    02:00 +8°C° 0 mm 4 m/S 739 mmHg 88%
    03:00 +9°C° 0 mm 3 m/S 739 mmHg 90%
    04:00 +9°C° 0 mm 3 m/S 739 mmHg 91%
    05:00 +9°C° 0 mm 3 m/S 740 mmHg 92%
    06:00 +8°C° 0 mm 2 m/S 740 mmHg 93%
    07:00 +10°C° 0 mm 3 m/S 740 mmHg 87%
    08:00 +11°C° 0 mm 3 m/S 740 mmHg 82%
    09:00 +13°C° 0 mm 4 m/S 740 mmHg 77%
    10:00 +14°C° 0 mm 4 m/S 740 mmHg 75%
    11:00 +15°C° 0 mm 5 m/S 740 mmHg 73%
    12:00 +16°C° 0 mm 6 m/S 739 mmHg 70%
    13:00 +15°C° 0.2 mm 5 m/S 739 mmHg 76%
    14:00 +15°C° 0.2 mm 5 m/S 738 mmHg 81%
    15:00 +14°C° 0.2 mm 4 m/S 738 mmHg 86%
    16:00 +14°C° 0.5 mm 4 m/S 738 mmHg 89%
    17:00 +14°C° 0.5 mm 4 m/S 737 mmHg 92%
    18:00 +13°C° 0.5 mm 4 m/S 737 mmHg 94%
    19:00 +13°C° 0.1 mm 4 m/S 737 mmHg 95%
    20:00 +14°C° 0.1 mm 3 m/S 738 mmHg 96%
    21:00 +14°C° 0.1 mm 3 m/S 738 mmHg 96%
    22:00 +14°C° 0 mm 3 m/S 738 mmHg 96%
    23:00 +13°C° 0 mm 4 m/S 738 mmHg 95%
    Mehr zeigen